Meteopurmerend
purmerend
Purmerend - Baaienwijk



My webcam  My webcam


waarschuwing voor Onweer Meer informatie blitzortung!


Regen radar Meer informatie rain snow radar


Bezoek onze andere website:

CandyAppleRed WebdesignWebdesign Purmerend Candy Apple Red

MeteopurmerendBlog

Template documentation
and downloads



Onweer van: 19-06-2019 16:00 tot: 23:00 waarschuwing voor: Onweer niveau: Geel info button
Enkele onweersbuien, mogelijk met hagel en windstoten tot ca. 75 km/uur.Verkeer en buitenactiviteiten kunnen hinder ondervinden.Mijd open water en open gebied, schuil niet onder bomen.Volg weerberichten en waarschuwingen.

15 daagse weersverwachting Bad Ischl (AT)

  • Overzicht
  • Per uur
  • 15 dagen
  • Extra
  • Vergelijk
  • Kaarten
  • Dagkaart
  • Meer »
  • Info
  • Statistieken
  • Directe link
    Temp 6h Neerslag Wind  
 05:08     21:06    Daglengte: 15:58 Vandaag
20:00
22°
 
1
 05:08     21:07    Daglengte: 15:59 Morgen
02:00
16°
 
1
08:00
21°
 
1
14:00
26°
1.6 mm
1
20:00
19°
17.7 mm
1
warningclass
 05:09     21:07    Daglengte: 15:58 Vrijdag 21 Jun
02:00
17°
37.5 mm
1
08:00
18°
7.0 mm
1
14:00
22°
21.8 mm
1
warningclass
20:00
19°
8.2 mm
1
 05:09     21:07    Daglengte: 15:58 Zaterdag 22 Jun
02:00
16°
 
1
08:00
17°
21.3 mm
1
14:00
21°
45.5 mm
1
warningclass
Locatie info
Region: Oberösterreich
Latitude: 47.7120°N
Longitude: 13.6257°E
470 masl
Postcode: 4820
Temp/Neerslag /Baro Onweer/Dauwpunt
    Temp Baro 1h Neerslag Dauwpunt Wind UV Bewolking  
 05:08     21:06    Daglengte: 15:58 Vandaag
19:00
23°
1011.9 hPa
49%
17.9°
1
Windvlaag: 2.1 m/s
39%
20:00
22°
1012.0 hPa
14%
18.8°
1
Windvlaag: 1.5 m/s
36%
21:00
20°
1012.4 hPa
14%
18.1°
1
Windvlaag: 1.5 m/s
36%
22:00
19°
1012.8 hPa
14%
17.4°
1
Windvlaag: 1.4 m/s
28%
23:00
18°
1013.0 hPa
14%
16.6°
1
Windvlaag: 0.9 m/s
4%
 05:08     21:07    Daglengte: 15:59 Morgen
00:00
17°
1013.0 hPa
14%
15.6°
1
Windvlaag: 0.7 m/s
15%
01:00
17°
1013.1 hPa
14%
14.8°
1
Windvlaag: 0.7 m/s
8%
02:00
16°
1013.1 hPa
14%
13.8°
1
Windvlaag: 0.6 m/s
8%
03:00
15°
1013.1 hPa
14%
13.2°
1
Windvlaag: 0.7 m/s
8%
04:00
15°
1013.1 hPa
14%
12.6°
1
Windvlaag: 0.7 m/s
2%
05:00
14°
1013.1 hPa
14%
12.2°
2
Windvlaag: 0.7 m/s
1%
06:00
15°
1013.2 hPa
14%
12.1°
1
Windvlaag: 0.7 m/s
1%
07:00
17°
1013.3 hPa
14%
13.3°
1
Windvlaag: 0.5 m/s
6%
08:00
21°
1013.2 hPa
14%
14.3°
1
Windvlaag: 0.8 m/s
6%
09:00
23°
1013.2 hPa
14%
14.0°
1
Windvlaag: 1.4 m/s
18%
10:00
25°
1012.9 hPa
14%
12.8°
1
Windvlaag: 0.8 m/s
41%
11:00
25°
1013.0 hPa
17%
14.4°
2
Windvlaag: -1 m/s
38%
12:00
25°
1012.9 hPa
27%
16.3°
1
Windvlaag: -1.4 m/s
17%
13:00
26°
1012.5 hPa 1.6 mm
37%
16.0°
1
Windvlaag: -1.6 m/s
19% warningclass
14:00
26°
1012.1 hPa
39%
15.4°
1
Windvlaag: -1.7 m/s
24%
15:00
26°
1011.7 hPa
80%
16.1°
2
Windvlaag: -1.2 m/s
25%
16:00
25°
1012.1 hPa 2.4 mm
82%
16.7°
1
Windvlaag: -0.9 m/s
63% warningclass
17:00
22°
1012.6 hPa 2.4 mm
82%
18.6°
1
Windvlaag: -0.8 m/s
80% warningclass
18:00
21°
1012.9 hPa 2.0 mm
82%
19.1°
1
Windvlaag: -0.5 m/s
82% warningclass
19:00
21°
1014.1 hPa 3.6 mm
82%
18.9°
2
Windvlaag: -0.4 m/s
71% warningclass
20:00
19°
1015.0 hPa 7.2 mm
82%
18.3°
1
Windvlaag: -0.6 m/s
85% warningclass
21:00
18°
1015.2 hPa 5.5 mm
82%
18.0°
1
Windvlaag: -0.3 m/s
89% warningclass
22:00
18°
1015.4 hPa 5.8 mm
82%
17.4°
1
Windvlaag: 0 m/s
82% warningclass
23:00
17°
1016.0 hPa 8.1 mm
80%
17.2°
1
Windvlaag: 1.1 m/s
72%
 05:09     21:07    Daglengte: 15:58 Vrijdag 21 Jun
00:00
17°
1016.3 hPa 5.7 mm
82%
17.3°
1
Windvlaag: 1 m/s
69%
01:00
17°
1016.4 hPa 5.4 mm
82%
17.2°
1
Windvlaag: 0.7 m/s
62%
02:00
17°
1016.4 hPa 7.1 mm
79%
16.6°
1
Windvlaag: 0.1 m/s
50%
03:00
16°
1016.4 hPa 7.0 mm
76%
15.9°
1
Windvlaag: 0.3 m/s
18%
04:00
16°
1016.6 hPa
35%
15.2°
1
Windvlaag: 0.6 m/s
16%
05:00
15°
1016.8 hPa
23%
15.0°
1
Windvlaag: 0.7 m/s
22%
06:00
16°
1017.1 hPa
20%
15.6°
1
Windvlaag: 0.2 m/s
22%
07:00
17°
1017.5 hPa
18%
16.8°
1
Windvlaag: -0.1 m/s
32%
08:00
18°
1017.8 hPa
25%
16.9°
1
Windvlaag: 0.1 m/s
45%
09:00
19°
1018.0 hPa 7.4 mm
76%
16.6°
1
Windvlaag: -0.2 m/s
47%
10:00
19°
1018.1 hPa 7.2 mm
80%
15.6°
1
Windvlaag: -0.3 m/s
66%
11:00
20°
1018.1 hPa
80%
15.3°
1
Windvlaag: -0.2 m/s
60%
12:00
21°
1017.7 hPa
82%
15.3°
1
Windvlaag: 0 m/s
60%
13:00
22°
1017.2 hPa
82%
15.7°
1
Windvlaag: -0.3 m/s
64%
14:00
22°
1016.9 hPa 7.3 mm
82%
15.9°
1
Windvlaag: -0.3 m/s
74% warningclass
15:00
21°
1016.9 hPa 8.2 mm
82%
16.3°
1
Windvlaag: 0.1 m/s
83%
16:00
22°
1016.8 hPa
81%
16.5°
1
Windvlaag: -0.4 m/s
62%
17:00
20°
1017.0 hPa
96%
17.7°
1
Windvlaag: -1.2 m/s
90%
18:00
20°
1017.1 hPa
87%
16.9°
1
Windvlaag: -1.1 m/s
59%
19:00
20°
1017.4 hPa
75%
17.6°
0
Windvlaag: -1.2 m/s
79%
20:00
19°
1018.0 hPa
32%
18.6°
1
Windvlaag: -1.1 m/s
79%
21:00
18°
1018.7 hPa
28%
18.3°
1
Windvlaag: -0.3 m/s
77%
22:00
17°
1019.3 hPa
32%
17.2°
1
Windvlaag: 0.5 m/s
65%
23:00
16°
1019.4 hPa
35%
16.2°
1
Windvlaag: 0.6 m/s
79%
 05:09     21:07    Daglengte: 15:58 Zaterdag 22 Jun
00:00
16°
1019.2 hPa
39%
15.8°
1
Windvlaag: 0.4 m/s
84%
01:00
16°
1019.0 hPa
46%
15.8°
1
Windvlaag: 0.4 m/s
92%
02:00
16°
1019.0 hPa
51%
15.4°
1
Windvlaag: 0.5 m/s
91%
03:00
15°
1018.7 hPa
99%
15.3°
1
Windvlaag: 0.4 m/s
83%
04:00
15°
1018.4 hPa
95%
14.9°
1
Windvlaag: 0.1 m/s
72%
05:00
15°
1018.4 hPa
95%
14.1°
1
Windvlaag: -0 m/s
70%
06:00
15°
1018.7 hPa 10.8 mm
100%
15.5°
1
Windvlaag: -0.2 m/s
83%
07:00
16°
1018.7 hPa 10.5 mm
100%
15.8°
1
Windvlaag: -0.5 m/s
85%
08:00
17°
1018.5 hPa
97%
16.0°
1
Windvlaag: -0.6 m/s
87%
09:00
18°
1018.2 hPa
91%
16.5°
1
Windvlaag: -1.9 m/s
80%
10:00
19°
1017.8 hPa
93%
17.0°
1
Windvlaag: -2.6 m/s
78%
11:00
19°
1017.4 hPa
95%
17.6°
1
Windvlaag: -4 m/s
78% warningclass
12:00
20°
1017.1 hPa 17.4 mm
100%
18.1°
1
Windvlaag: -4.5 m/s
66% warningclass
13:00
21°
1016.8 hPa 17.4 mm
100%
18.7°
1
Windvlaag: -4.4 m/s
65% warningclass
14:00
21°
1016.4 hPa 10.7 mm
100%
19.0°
1
Windvlaag: -2.2 m/s
98% warningclass
15:00
20°
1016.0 hPa 18.2 mm
100%
18.7°
1
Windvlaag: 3.5 m/s
99% warningclass
16:00
20°
1015.8 hPa 18.5 mm
100%
18.6°
1
Windvlaag: 2.9 m/s
93% warningclass
17:00
19°
1015.4 hPa 18.4 mm
100%
18.3°
1
Windvlaag: 7.5 m/s
87% warningclass
18:00
19°
1015.4 hPa 18.3 mm
100%
18.2°
1
Windvlaag: 9.5 m/s
75% warningclass
Temp/Neerslag /Baro Onweer/Dauwpunt
    Temp Baro Neerslag Dauwpunt Wind Bewolking  
 05:08     21:06    Daglengte: 15:58 Vandaag
20:00
22°
1012.0 hPa   18.8°
1
36%
23:00
18°
1013.0 hPa   16.6°
1
4%
 05:08     21:07    Daglengte: 15:59 Morgen
02:00
16°
1013.1 hPa   13.8°
1
8%
05:00
14°
1013.1 hPa   12.2°
2
1%
08:00
21°
1013.2 hPa   14.3°
1
6%
11:00
25°
1013.0 hPa   14.4°
2
38%
14:00
26°
1012.1 hPa 1.6 mm 15.4°
1
24%
17:00
22°
1012.6 hPa 4.8 mm 18.6°
1
80% warningclass
20:00
19°
1015.0 hPa 12.9 mm 18.3°
1
85% warningclass
23:00
17°
1016.0 hPa 19.3 mm 17.2°
1
72%
 05:09     21:07    Daglengte: 15:58 Vrijdag 21 Jun
02:00
17°
1016.4 hPa 18.2 mm 16.6°
1
50%
05:00
15°
1016.8 hPa 7.0 mm 15.0°
1
22%
08:00
18°
1017.8 hPa   16.9°
1
45%
11:00
20°
1018.1 hPa 14.5 mm 15.3°
1
60% warningclass
14:00
22°
1016.9 hPa 7.3 mm 15.9°
1
74% warningclass
17:00
20°
1017.0 hPa 8.2 mm 17.7°
1
90%
20:00
19°
1018.0 hPa   18.6°
1
79%
23:00
16°
1019.4 hPa   16.2°
1
79%
 05:09     21:07    Daglengte: 15:58 Zaterdag 22 Jun
02:00
16°
1019.0 hPa   15.4°
1
91%
05:00
15°
1018.4 hPa   14.1°
1
70%
08:00
17°
1018.5 hPa 21.3 mm 16.0°
1
87%
11:00
19°
1017.4 hPa   17.6°
1
78% warningclass
14:00
21°
1016.4 hPa 45.5 mm 19.0°
1
98% warningclass
17:00
19°
1015.4 hPa 55.2 mm 18.3°
1
87% warningclass
20:00
18°
1015.6 hPa 54.6 mm 18.4°
1
78%
23:00
17°
1016.2 hPa 53.2 mm 17.4°
1
91%
 05:09     21:07    Daglengte: 15:58 Zondag 23 Jun
02:00
16°
1016.6 hPa 57.2 mm 16.8°
1
91%
05:00
17°
1017.2 hPa 58.5 mm 17.0°
1
91%
08:00
17°
1017.8 hPa 60.5 mm 17.3°
1
92%
11:00
18°
1018.5 hPa 63.6 mm 18.3°
1
91%
14:00
20°
1019.0 hPa 64.1 mm 19.5°
1
91%
17:00
19°
1019.9 hPa 64.6 mm 19.0°
1
90%
20:00
18°
1020.9 hPa 65.6 mm 18.6°
1
89%
23:00
17°
1021.8 hPa 65.6 mm 17.0°
1
58%
 05:09     21:07    Daglengte: 15:58 Maandag 24 Jun
02:00
16°
1022.5 hPa 65.6 mm 15.6°
1
28%
05:00
17°
1022.8 hPa 65.6 mm 16.4°
0
41%
08:00
18°
1023.2 hPa 65.6 mm 17.3°
0
54%
11:00
21°
1022.8 hPa 65.7 mm 17.1°
1
72%
14:00
24°
1022.4 hPa 65.7 mm 16.1°
2
89%
17:00
23°
1022.7 hPa 65.8 mm 17.5°
2
57%
20:00
22°
1023.1 hPa 65.8 mm 18.6°
1
26%
23:00
19°
1024.0 hPa 65.8 mm 16.2°
1
14%
 05:10     21:07    Daglengte: 15:57 Dinsdag 25 Jun
02:00
15°
1024.7 hPa 65.8 mm 13.9°
1
3%
05:00
17°
1024.8 hPa 65.8 mm 15.1°
1
7%
08:00
20°
1024.9 hPa 65.8 mm 16.4°
1
11%
11:00
24°
1024.2 hPa 65.8 mm 18.0°
2
9%
14:00
27°
1023.5 hPa 65.8 mm 19.3°
3
6%
17:00
26°
1023.3 hPa 65.9 mm 20.7°
2
3%
20:00
24°
1023.2 hPa 66.0 mm 21.6°
1
1%
23:00
21°
1023.7 hPa 66.0 mm 19.1°
1
0%
 05:10     21:07    Daglengte: 15:57 Woensdag 26 Jun
02:00
19°
1024.1 hPa 66.0 mm 16.7°
1
0%
05:00
20°
1023.8 hPa 66.0 mm 17.3°
2
0%
08:00
22°
1023.6 hPa 66.0 mm 18.2°
2
1%
11:00
27°
1022.5 hPa 66.1 mm 19.1°
2
0%
14:00
31°
1021.3 hPa 66.1 mm 18.8°
2
0%
17:00
29°
1020.8 hPa   22.6°
1
2%
20:00
27°
1020.4 hPa 132.5 mm 25.0°
1
4%
 05:11     21:07    Daglengte: 15:56 Donderdag 27 Jun
02:00
20°
1021.0 hPa 132.9 mm 18.1°
2
0%
08:00
24°
1020.3 hPa 133.1 mm 21.0°
1
0%
14:00
31°
1019.4 hPa 133.1 mm 19.3°
2
9%
20:00
26°
1018.5 hPa 133.1 mm 24.7°
1
0%
 05:11     21:07    Daglengte: 15:56 Vrijdag 28 Jun
02:00
20°
1019.6 hPa 133.1 mm 17.0°
1
0%
08:00
24°
1018.9 hPa 133.1 mm 20.6°
1
1%
14:00
32°
1017.0 hPa 133.1 mm 18.4°
2
0%
20:00
27°
1015.4 hPa 137.7 mm 26.4°
0
0%
 05:12     21:07    Daglengte: 15:55 Zaterdag 29 Jun
02:00
21°
1015.5 hPa 146.4 mm 19.2°
2
0%
08:00
22°
1014.8 hPa 149.1 mm 20.3°
1
1%
14:00
30°
Voelt als: 30.1°
1014.7 hPa 0.3 mm 15.5°
2
15%
20:00
25°
1014.8 hPa 1.3 mm 18.9°
1
28%
 05:12     21:07    Daglengte: 15:55 Zondag 30 Jun
02:00
17°
1016.4 hPa 0.4 mm 14.9°
1
27%
08:00
21°
1016.2 hPa 0.3 mm 16.9°
1
25%
14:00
29°
Voelt als: 28.8°
1014.4 hPa 0.6 mm 15.4°
1
23%
20:00
24°
1014.6 hPa 1.4 mm 18.2°
1
30%
 05:13     21:07    Daglengte: 15:54 Maandag 01 Jul
02:00
17°
1015.9 hPa 1.9 mm 15.2°
1
48%
08:00
20°
1015.7 hPa 0.7 mm 16.8°
1
36%
14:00
28°
1014.0 hPa 0.6 mm 14.8°
1
33%
20:00
22°
1014.1 hPa 1.8 mm 18.0°
1
43%
 05:13     21:07    Daglengte: 15:54 Dinsdag 02 Jul
02:00
16°
1015.6 hPa 1.8 mm 14.6°
1
54%
08:00
19°
1015.9 hPa 0.9 mm 15.7°
1
42%
14:00
25°
1014.2 hPa 1.5 mm 16.1°
1
30%
20:00
22°
1014.2 hPa 2.4 mm 17.6°
1
46%
 05:14     21:06    Daglengte: 15:52 Woensdag 03 Jul
02:00
15°
1015.7 hPa 3.5 mm 14.2°
1
53%
08:00
19°
1015.6 hPa 1.7 mm 15.8°
0
38%
14:00
26°
1013.8 hPa 1.3 mm 15.8°
1
39%
20:00
21°
1014.0 hPa 3.3 mm 17.9°
1
50%
 05:15     21:06    Daglengte: 15:51 Donderdag 04 Jul
02:00
15°
1015.9 hPa 3.4 mm 14.2°
1
56%
08:00
18°
1016.6 hPa 1.5 mm 15.6°
0
51%
14:00
25°
1015.6 hPa 1.2 mm 15.5°
1
43%
  CAPE Lifted Index Hail Supercell Tornado SRH 3km CL BTM PRES CL TOP PRES Swiss DWD icon SMHI TS
 05:08     21:06    Daglengte: 15:58 Vandaag
19:00 27 J/kg -1.0 K 0 % 0 % 0 % 0 m²/s² 0 0 2.12 3
20:00 24 J/kg -0.2 K 0 % 0 % 0 % 0 m²/s² 0 0 3.97 3
21:00 0 J/kg -0.3 K 0 % 0 % 0 % 0 m²/s² 0 0 4.2 3
22:00 0 J/kg 0.3 K 0 % 0 % 0 % 0 m²/s² 0 0 5.28 3
23:00 0 J/kg 0.3 K 0 % 0 % 0 % 0 m²/s² 0 0 5.16 2
 05:08     21:07    Daglengte: 15:59 Morgen
00:00 0 J/kg 1.0 K 0 % 0 % 0 % 0 m²/s² 0 0 5.74 3
01:00 0 J/kg -0.5 K 0 % 0 % 0 % 0 m²/s² 0 0 3.76 1
02:00 0 J/kg -0.7 K 0 % 0 % 0 % 0 m²/s² 0 0 3.35 1
03:00 0 J/kg -0.9 K 0 % 0 % 0 % 0 m²/s² 0 0 2.85 0
04:00 0 J/kg -1.3 K 0 % 0 % 0 % 0 m²/s² 0 0 2.15 0
05:00 0 J/kg -1.1 K 0 % 0 % 0 % 0 m²/s² 0 0 2.17 0
06:00 0 J/kg -1.5 K 0 % 0 % 0 % 0 m²/s² 0 0 1.11 0
07:00 0 J/kg -1.8 K 0 % 0 % 0 % 0 m²/s² 0 0 0.51 3
08:00 0 J/kg -1.9 K 0 % 0 % 0 % 0 m²/s² 0 0 0.65 3
09:00 202 J/kg -1.5 K 0 % 0 % 0 % 0 m²/s² 0 0 0.9 0
10:00 568 J/kg -2.2 K 0 % 0 % 0 % 0 m²/s² 0 0 0.35 2
11:00 918 J/kg -3.5 K 0 % 0 % 0 % 0 m²/s² 0 0 -1.04 3
12:00 1141 J/kg -4.3 K 0 % 0 % 0 % 0 m²/s² 0 0 -2.26 0
13:00 1295 J/kg -4.5 K 0 % 0 % 0 % 0 m²/s² 0 0 -2.88 0
14:00 1385 J/kg -4.8 K 0 % 0 % 0 % 0 m²/s² 0 0 -3.18 1
15:00 1478 J/kg -5.2 K 0 % 0 % 0 % 0 m²/s² 0 0 -3.97 3
16:00 1414 J/kg -5.0 K 0 % 0 % 0 % 0 m²/s² 0 0 -4.88 95
17:00 859 J/kg -5.2 K 0 % 0 % 0 % 0 m²/s² 0 0 -3.91 95
18:00 0 J/kg -2.9 K 0 % 0 % 0 % 0 m²/s² 0 0 -1.58 95
19:00 177 J/kg -0.5 K 0 % 0 % 0 % 0 m²/s² 0 0 -0.23 95
20:00 48 J/kg 1.2 K 0 % 0 % 0 % 0 m²/s² 0 0 1.77 95
21:00 10 J/kg 0.5 K 0 % 0 % 0 % 0 m²/s² 0 0 0.98 95
22:00 0 J/kg 1.1 K 0 % 0 % 0 % 0 m²/s² 0 0 2.42 95
23:00 0 J/kg 1.3 K 0 % 0 % 0 % 0 m²/s² 0 0 2.35 3
 05:09     21:07    Daglengte: 15:58 Vrijdag 21 Jun
00:00 0 J/kg 1.8 K 0 % 0 % 0 % 0 m²/s² 0 0 2.82 3
01:00 0 J/kg 1.4 K 0 % 0 % 0 % 0 m²/s² 0 0 3.26 80
02:00 0 J/kg 1.0 K 0 % 0 % 0 % 0 m²/s² 0 0 3.13 2
03:00 0 J/kg 1.1 K 0 % 0 % 0 % 0 m²/s² 0 0 3.65 2
04:00 0 J/kg 0.6 K 0 % 0 % 0 % 0 m²/s² 0 0 3.09 3
05:00 0 J/kg 0.0 K 0 % 0 % 0 % 0 m²/s² 0 0 2.25 2
06:00 0 J/kg 0.2 K 0 % 0 % 0 % 0 m²/s² 0 0 2.45 2
07:00 0 J/kg 0.2 K 0 % 0 % 0 % 0 m²/s² 0 0 2.18 45
08:00 94 J/kg -0.7 K 0 % 0 % 0 % 0 m²/s² 0 0 1.22 3
09:00 388 J/kg -1.8 K 0 % 0 % 0 % 0 m²/s² 0 0 -0.3 80
10:00 572 J/kg -2.3 K 0 % 0 % 0 % 0 m²/s² 0 0 -1.13 80
11:00 778 J/kg -3.1 K 0 % 0 % 0 % 0 m²/s² 0 0 -2.35 80
12:00 785 J/kg -3.1 K 0 % 0 % 0 % 0 m²/s² 0 0 -2.56 80
13:00 777 J/kg -3.3 K 0 % 0 % 0 % 0 m²/s² 0 0 -3.21 80
14:00 688 J/kg -3.4 K 0 % 0 % 0 % 0 m²/s² 0 0 -3.28 80
15:00 529 J/kg -2.2 K 0 % 0 % 0 % 0 m²/s² 0 0 -1.66 3
16:00 212 J/kg -1.2 K 0 % 0 % 0 % 0 m²/s² 0 0 -0.42 3
17:00 96 J/kg -0.8 K 0 % 0 % 0 % 0 m²/s² 0 0 -0.23 3
18:00 129 J/kg -1.4 K 0 % 0 % 0 % 0 m²/s² 0 0 -0.68 3
19:00 140 J/kg -1.5 K 0 % 0 % 0 % 0 m²/s² 0 0 0.06 3
20:00 190 J/kg -1.1 K 0 % 0 % 0 % 0 m²/s² 0 0 -0.23 3
21:00 259 J/kg -1.4 K 0 % 0 % 0 % 0 m²/s² 0 0 -0.62 3
22:00 152 J/kg -0.7 K 0 % 0 % 0 % 0 m²/s² 0 0 -0.34 3
23:00 33 J/kg 0.0 K 0 % 0 % 0 % 0 m²/s² 0 0 0.57 3
 05:09     21:07    Daglengte: 15:58 Zaterdag 22 Jun
00:00 1 J/kg 0.1 K 0 % 0 % 0 % 0 m²/s² 0 0 0.91 3
01:00 0 J/kg 0.0 K 0 % 0 % 0 % 0 m²/s² 0 0 0.87 3
02:00 0 J/kg -0.4 K 0 % 0 % 0 % 0 m²/s² 0 0 0.32 3
03:00 0 J/kg -0.5 K 0 % 0 % 0 % 0 m²/s² 0 0 0.58 3
04:00 0 J/kg -1.1 K 0 % 0 % 0 % 0 m²/s² 0 0 -0.14 61
05:00 0 J/kg -1.1 K 0 % 0 % 0 % 0 m²/s² 0 0 0.13 3
06:00 0 J/kg -1.4 K 0 % 0 % 0 % 0 m²/s² 0 0 0.04 3
07:00 0 J/kg -1.4 K 0 % 0 % 0 % 0 m²/s² 0 0 -0.53 80
08:00 210 J/kg -1.7 K 0 % 0 % 0 % 0 m²/s² 0 0 -0.8 80
09:00 584 J/kg -2.8 K 0 % 0 % 0 % 0 m²/s² 0 0 -1.78 3
10:00 1009 J/kg -3.8 K 0 % 0 % 0 % 0 m²/s² 0 0 -2.63 3
11:00 1267 J/kg -4.5 K 0 % 0 % 0 % 0 m²/s² 0 0 -3.33 95
12:00 1551 J/kg -5.6 K 0 % 0 % 0 % 0 m²/s² 0 0 -4.58 3
13:00 1470 J/kg -5.3 K 0 % 0 % 0 % 0 m²/s² 0 0 -4.49 3
14:00 1265 J/kg -5.1 K 0 % 0 % 0 % 0 m²/s² 0 0 -4.14 3
15:00 1190 J/kg -4.9 K 0 % 0 % 0 % 0 m²/s² 0 0 -4.33 95
16:00 755 J/kg -3.3 K 0 % 0 % 0 % 0 m²/s² 0 0 -2.13 95
17:00 137 J/kg -2.1 K 0 % 0 % 0 % 0 m²/s² 0 0 -0.87 95
18:00 14 J/kg 0.0 K 0 % 0 % 0 % 0 m²/s² 0 0 1.02 95
Temp Baro Wind Neerslag
  EWN Forecast EWN WRFDA DWD ICON FMI HIRLAM MET Norway GFS
 05:08     21:06    Daglengte: 15:58 Vandaag
20:00 22.2° 1012.0 hPa 0.8 m/s 0.0 mm 21.1° 1011.3 hPa 1.9 m/s 14.4 mm 21.7° 1011.2 hPa 0.6 m/s -1.8 mm 24.2° 1013.1 hPa 1.0 m/s 0.0 mm 22.1° 1012.0 hPa 0.4 m/s 0.0 mm 20.1° 1012.1 hPa 1.9 m/s
23:00 18.2° 1013.0 hPa 1.3 m/s 0.0 mm 18.3° 1011.2 hPa 4.3 m/s 21.5 mm 17.1° 1012.6 hPa 1.3 m/s 0.0 mm 18.8° 1014.5 hPa 1.2 m/s 0.0 mm 18.4° 1012.9 hPa 0.7 m/s 0.0 mm 16.0° 1013.5 hPa 2.2 m/s
 05:08     21:07    Daglengte: 15:59 Morgen
02:00 15.7° 1013.1 hPa 1.4 m/s 0.0 mm 16.9° 1011.4 hPa 3.6 m/s 21.5 mm 14.3° 1013.1 hPa 1.2 m/s 0.0 mm 16.2° 1014.9 hPa 1.3 m/s 0.0 mm 15.7° 1012.4 hPa 1.2 m/s 0.0 mm 15.7° 1014.0 hPa 2.3 m/s
05:00 14.1° 1013.1 hPa 1.5 m/s 0.0 mm 17.1° 1011.3 hPa 4.1 m/s 21.5 mm 13.0° 1013.2 hPa 1.3 m/s 0.0 mm 14.1° 1015.4 hPa 1.3 m/s 0.0 mm 13.8° 1012.6 hPa 1.5 m/s 0.0 mm 15.2° 1013.5 hPa 1.7 m/s
08:00 21.1° 1013.2 hPa 1.1 m/s 0.0 mm 22.0° 1012.3 hPa 3.4 m/s 21.5 mm 18.3° 1013.1 hPa 0.6 m/s 0.0 mm 21.6° 1013.9 hPa 1.0 m/s 0.0 mm 21.7° 1013.0 hPa 1.2 m/s 0.0 mm 20.8° 1013.9 hPa 1.1 m/s
11:00 25.1° 1013.0 hPa 2.3 m/s 0.0 mm 24.2° 1012.4 hPa 2.6 m/s 21.5 mm 23.0° 1013.1 hPa 2.8 m/s 0.0 mm 30.0° 1012.2 hPa 0.3 m/s 0.0 mm 25.2° 1013.2 hPa 2.7 m/s 0.3 mm 25.6° 1012.8 hPa 1.6 m/s
14:00 25.8° 1012.1 hPa 1.4 m/s 1.6 mm 26.1° 1011.3 hPa 2.0 m/s 21.6 mm 25.2° 1012.2 hPa 2.3 m/s 0.0 mm 34.2° 1010.1 hPa 1.2 m/s 0.0 mm 25.0° 1012.7 hPa 1.4 m/s 0.8 mm 27.6° 1012.1 hPa 2.5 m/s
17:00 22.1° 1012.6 hPa 1.2 m/s 4.8 mm 22.4° 1010.2 hPa 3.5 m/s 24.5 mm 18.3° 1014.1 hPa 1.6 m/s 3.2 mm 29.1° 1010.2 hPa 1.3 m/s 0.0 mm 20.5° 1013.8 hPa 0.7 m/s 1.9 mm 20.3° 1012.3 hPa 3.0 m/s
20:00 19.0° 1015.0 hPa 0.9 m/s 12.9 mm 17.2° 1015.3 hPa 1.3 m/s 55.9 mm 16.5° 1016.3 hPa 0.4 m/s 4.0 mm 22.7° 1012.7 hPa 0.9 m/s 0.0 mm 18.8° 1015.3 hPa 0.8 m/s 1.3 mm 17.8° 1014.2 hPa 1.7 m/s
23:00 17.3° 1016.0 hPa 0.7 m/s 19.3 mm 16.0° 1015.0 hPa 3.0 m/s 103.2 mm 15.5° 1016.5 hPa 0.2 m/s 2.2 mm 19.9° 1015.5 hPa 0.9 m/s 0.0 mm 17.1° 1016.9 hPa 0.5 m/s 3.7 mm 15.8° 1016.4 hPa 0.8 m/s
 05:09     21:07    Daglengte: 15:58 Vrijdag 21 Jun
02:00 17.0° 1016.4 hPa 1.2 m/s 18.2 mm 15.5° 1013.7 hPa 3.6 m/s 103.2 mm 14.6° 1017.5 hPa 0.5 m/s 1.0 mm 19.0° 1016.0 hPa 1.4 m/s 0.0 mm 17.1° 1017.2 hPa 1.1 m/s 2.3 mm 15.2° 1016.8 hPa 1.0 m/s
05:00 15.4° 1016.8 hPa 1.2 m/s 7.0 mm 15.7° 1014.5 hPa 3.4 m/s 103.2 mm 13.9° 1017.7 hPa 0.4 m/s 0.2 mm 18.1° 1017.0 hPa 1.4 m/s 0.0 mm 14.5° 1017.2 hPa 1.1 m/s 0.0 mm 14.6° 1017.0 hPa 1.4 m/s
08:00 18.3° 1017.8 hPa 0.7 m/s 0.0 mm 19.5° 1014.9 hPa 2.1 m/s 103.2 mm 15.9° 1018.2 hPa 0.0 m/s 0.0 mm 18.8° 1017.9 hPa 0.8 m/s 0.0 mm 18.9° 1018.0 hPa 0.5 m/s 0.0 mm 18.9° 1017.3 hPa 0.5 m/s
11:00 19.6° 1018.1 hPa 0.9 m/s 14.5 mm 22.6° 1015.6 hPa 2.5 m/s 103.2 mm 17.6° 1018.3 hPa 0.6 m/s 0.4 mm 19.6° 1017.9 hPa 0.2 m/s 0.0 mm 21.6° 1018.2 hPa 0.8 m/s 0.0 mm 23.2° 1017.1 hPa 1.9 m/s
14:00 21.9° 1016.9 hPa 1.5 m/s 7.3 mm 21.1° 1015.0 hPa 3.0 m/s 103.5 mm 17.1° 1018.1 hPa 0.9 m/s 1.6 mm 26.5° 1016.0 hPa 0.1 m/s 0.0 mm 23.3° 1016.8 hPa 1.9 m/s 0.5 mm 25.5° 1016.0 hPa 1.6 m/s
17:00 20.1° 1017.0 hPa 0.6 m/s 8.2 mm 18.1° 1016.2 hPa 0.8 m/s 137.6 mm 17.8° 1017.9 hPa 0.6 m/s 0.4 mm 21.3° 1016.8 hPa 0.3 m/s 1.4 mm 24.7° 1015.7 hPa 1.8 m/s
20:00 19.1° 1018.0 hPa 0.7 m/s 0.0 mm 19.7° 1015.5 hPa 0.8 m/s 154.9 mm 17.3° 1017.9 hPa 0.5 m/s 0.1 mm 19.4° 1018.1 hPa 0.7 m/s 1.6 mm 20.2° 1016.3 hPa 1.0 m/s
23:00 16.0° 1019.4 hPa 0.8 m/s 0.0 mm 16.0° 1016.5 hPa 1.7 m/s 155.2 mm 15.2° 1019.2 hPa 0.3 m/s 0.0 mm 17.1° 1019.6 hPa 0.8 m/s 4.4 mm 17.3° 1017.8 hPa 1.0 m/s
 05:09     21:07    Daglengte: 15:58 Zaterdag 22 Jun
02:00 15.6° 1019.0 hPa 0.6 m/s 0.0 mm 15.8° 1016.3 hPa 2.3 m/s 155.3 mm 14.3° 1019.2 hPa 0.5 m/s 0.0 mm 16.3° 1019.2 hPa 0.3 m/s 1.4 mm 16.9° 1017.6 hPa 0.7 m/s
05:00 14.6° 1018.4 hPa 0.5 m/s 0.0 mm 14.2° 1014.3 hPa 1.9 m/s 155.3 mm 13.1° 1018.7 hPa 0.4 m/s 0.1 mm 15.9° 1018.7 hPa 0.3 m/s 1.1 mm 16.3° 1016.6 hPa 0.3 m/s
08:00 17.5° 1018.5 hPa 0.8 m/s 21.3 mm 19.6° 1014.4 hPa 1.4 m/s 155.3 mm 14.7° 1019.1 hPa 0.3 m/s 0.6 mm 18.0° 1018.8 hPa 0.8 m/s 0.9 mm 18.5° 1016.7 hPa 0.9 m/s
11:00 19.3° 1017.4 hPa 1.1 m/s 0.0 mm 22.6° 1013.8 hPa 3.2 m/s 155.3 mm 19.1° 1017.7 hPa 0.8 m/s 0.0 mm 19.1° 1017.7 hPa 0.8 m/s 20.6° 1015.6 hPa 1.7 m/s
14:00 20.8° 1016.4 hPa 1.2 m/s 45.5 mm 21.6° 1012.7 hPa 2.8 m/s 155.8 mm 20.9° 1016.5 hPa 1.2 m/s 0.5 mm 20.2° 1016.6 hPa 0.7 m/s 22.6° 1014.5 hPa 1.5 m/s
17:00 19.4° 1015.4 hPa 1.2 m/s 55.2 mm 20.4° 1012.3 hPa 4.5 m/s 161.4 mm 19.1° 1015.4 hPa 1.0 m/s 2.0 mm 19.4° 1016.1 hPa 0.7 m/s 21.0° 1013.9 hPa 0.5 m/s
20:00 18.4° 1015.6 hPa 1.1 m/s 54.6 mm 18.7° 1013.5 hPa 4.2 m/s 162.7 mm 17.5° 1016.9 hPa 0.9 m/s 0.6 mm 18.5° 1015.6 hPa 0.7 m/s 17.8° 1014.2 hPa 0.7 m/s
23:00 17.0° 1016.2 hPa 0.6 m/s 53.2 mm 17.0° 1016.3 hPa 0.6 m/s 16.9° 1015.9 hPa 1.0 m/s 53.2 mm
 05:09     21:07    Daglengte: 15:58 Zondag 23 Jun
02:00 16.3° 1016.6 hPa 0.5 m/s 57.2 mm 16.3° 1016.6 hPa 0.5 m/s 16.7° 1016.3 hPa 0.7 m/s 57.2 mm
05:00 16.7° 1017.2 hPa 0.7 m/s 58.5 mm 16.6° 1017.2 hPa 0.7 m/s 16.7° 1016.8 hPa 0.9 m/s 58.5 mm
08:00 17.0° 1017.8 hPa 0.9 m/s 60.5 mm 17.0° 1017.8 hPa 0.9 m/s 17.4° 1018.0 hPa 1.5 m/s 60.5 mm
11:00 18.2° 1018.5 hPa 1.2 m/s 63.6 mm 18.3° 1018.4 hPa 1.2 m/s 17.0° 1019.1 hPa 1.5 m/s 63.6 mm
14:00 19.8° 1019.0 hPa 1.5 m/s 64.1 mm 19.6° 1019.0 hPa 1.5 m/s 21.7° 1019.0 hPa 1.4 m/s 64.1 mm
17:00 19.2° 1019.9 hPa 1.3 m/s 64.6 mm 18.9° 1020.0 hPa 1.2 m/s 22.1° 1018.6 hPa 2.1 m/s 64.6 mm
20:00 18.3° 1020.9 hPa 1.0 m/s 65.6 mm 18.2° 1021.0 hPa 0.9 m/s 18.8° 1020.3 hPa 1.7 m/s 65.6 mm
23:00 16.9° 1021.8 hPa 0.7 m/s 65.6 mm 17.1° 1021.8 hPa 0.7 m/s 15.5° 1022.6 hPa 0.7 m/s 65.6 mm
 05:09     21:07    Daglengte: 15:58 Maandag 24 Jun
02:00 15.9° 1022.5 hPa 0.5 m/s 65.6 mm 15.9° 1022.5 hPa 0.5 m/s 15.7° 1022.7 hPa 0.8 m/s 65.6 mm
05:00 17.0° 1022.8 hPa 0.4 m/s 65.6 mm 17.1° 1022.9 hPa 0.3 m/s 15.7° 1022.8 hPa 0.9 m/s 65.6 mm
08:00 18.4° 1023.2 hPa 0.3 m/s 65.6 mm 18.4° 1023.2 hPa 0.2 m/s 18.5° 1023.0 hPa 0.9 m/s 65.6 mm
11:00 21.4° 1022.8 hPa 1.3 m/s 65.7 mm 21.2° 1022.8 hPa 1.3 m/s 23.3° 1022.6 hPa 1.7 m/s 65.7 mm
14:00 24.3° 1022.4 hPa 2.4 m/s 65.7 mm 24.1° 1022.4 hPa 2.4 m/s 26.0° 1021.8 hPa 2.1 m/s 65.7 mm
17:00 23.2° 1022.7 hPa 1.6 m/s 65.8 mm 23.0° 1022.8 hPa 1.5 m/s 25.4° 1021.6 hPa 2.3 m/s 65.8 mm
20:00 21.8° 1023.1 hPa 0.8 m/s 65.8 mm 21.8° 1023.2 hPa 0.7 m/s 22.3° 1022.6 hPa 1.5 m/s 65.8 mm
23:00 18.5° 1024.0 hPa 0.9 m/s 65.8 mm 18.6° 1024.0 hPa 0.8 m/s 17.7° 1024.8 hPa 1.3 m/s 65.8 mm
 05:10     21:07    Daglengte: 15:57 Dinsdag 25 Jun
02:00 15.5° 1024.7 hPa 1.0 m/s 65.8 mm 15.4° 1024.7 hPa 1.0 m/s 16.5° 1024.8 hPa 1.4 m/s 65.8 mm
05:00 17.4° 1024.8 hPa 0.8 m/s 65.8 mm 17.6° 1024.8 hPa 0.8 m/s 15.7° 1024.2 hPa 1.5 m/s 65.8 mm
08:00 19.9° 1024.9 hPa 0.5 m/s 65.8 mm 19.8° 1025.0 hPa 0.5 m/s 21.4° 1024.0 hPa 1.0 m/s 65.8 mm
11:00 23.7° 1024.2 hPa 1.6 m/s 65.8 mm 23.3° 1024.3 hPa 1.6 m/s 28.0° 1023.1 hPa 1.4 m/s 65.8 mm
14:00 27.1° 1023.5 hPa 2.8 m/s 65.8 mm 26.8° 1023.6 hPa 2.8 m/s 29.8° 1022.0 hPa 2.4 m/s 65.8 mm
17:00 25.8° 1023.3 hPa 1.8 m/s 65.9 mm 25.5° 1023.5 hPa 1.8 m/s 28.7° 1021.2 hPa 2.3 m/s 65.9 mm
20:00 24.2° 1023.2 hPa 0.8 m/s 66.0 mm 24.2° 1023.3 hPa 0.8 m/s 24.6° 1022.1 hPa 1.3 m/s 66.0 mm
23:00 21.5° 1023.7 hPa 1.1 m/s 66.0 mm 21.5° 1023.7 hPa 1.1 m/s 20.4° 1024.0 hPa 0.9 m/s 66.0 mm
 05:10     21:07    Daglengte: 15:57 Woensdag 26 Jun
02:00 18.9° 1024.1 hPa 1.4 m/s 66.0 mm 18.9° 1024.1 hPa 1.4 m/s 19.4° 1023.5 hPa 0.9 m/s 66.0 mm
05:00 20.1° 1023.8 hPa 1.6 m/s 66.0 mm 20.3° 1023.9 hPa 1.7 m/s 18.4° 1023.1 hPa 0.9 m/s 66.0 mm
08:00 21.8° 1023.6 hPa 1.9 m/s 66.0 mm 21.7° 1023.7 hPa 2.0 m/s 23.2° 1022.8 hPa 0.4 m/s 66.0 mm
11:00 26.8° 1022.5 hPa 1.9 m/s 66.1 mm 26.6° 1022.5 hPa 1.9 m/s 27.9° 1021.9 hPa 1.9 m/s 66.1 mm
14:00 31.5° 1021.3 hPa 1.8 m/s 66.1 mm 31.6° 1021.4 hPa 1.7 m/s 30.0° 1020.5 hPa 2.5 m/s 66.1 mm
17:00 29.3° 1020.8 hPa 1.3 m/s 66.2 mm 29.3° 1021.0 hPa 1.2 m/s 29.8° 1019.2 hPa 2.1 m/s 66.2 mm
20:00 26.9° 1020.4 hPa 0.7 m/s 66.3 mm 27.0° 1020.5 hPa 0.7 m/s 25.6° 1019.7 hPa 1.3 m/s 66.3 mm
 05:11     21:07    Daglengte: 15:56 Donderdag 27 Jun
02:00 20.4° 1021.0 hPa 1.6 m/s 66.5 mm 20.4° 1021.1 hPa 1.6 m/s 19.9° 1020.0 hPa 1.5 m/s 66.5 mm
08:00 24.5° 1020.3 hPa 1.1 m/s 66.5 mm 24.5° 1020.5 hPa 1.1 m/s 24.5° 1018.6 hPa 0.8 m/s 66.5 mm
14:00 30.8° 1019.4 hPa 1.9 m/s 66.5 mm 30.6° 1019.7 hPa 1.9 m/s 32.7° 1016.1 hPa 2.1 m/s 66.5 mm
20:00 26.1° 1018.5 hPa 0.5 m/s 66.6 mm 26.1° 1018.8 hPa 0.5 m/s 25.9° 1015.1 hPa 0.9 m/s 66.6 mm
 05:11     21:07    Daglengte: 15:56 Vrijdag 28 Jun
02:00 19.9° 1019.6 hPa 1.1 m/s 66.6 mm 19.9° 1019.9 hPa 1.0 m/s 20.1° 1016.6 hPa 2.0 m/s 66.6 mm
08:00 24.4° 1018.9 hPa 1.3 m/s 66.6 mm 24.3° 1019.3 hPa 1.3 m/s 25.0° 1014.9 hPa 1.2 m/s 66.6 mm
14:00 32.5° 1017.0 hPa 1.6 m/s 66.6 mm 32.5° 1017.4 hPa 1.5 m/s 32.1° 1012.5 hPa 2.9 m/s 66.6 mm
20:00 27.3° 1015.4 hPa 0.4 m/s 70.5 mm 27.6° 1015.5 hPa 0.3 m/s 24.2° 1014.1 hPa 1.3 m/s 70.5 mm
 05:12     21:07    Daglengte: 15:55 Zaterdag 29 Jun
02:00 20.8° 1015.5 hPa 1.5 m/s 73.2 mm 20.9° 1015.6 hPa 1.5 m/s 19.4° 1015.0 hPa 1.9 m/s 73.2 mm
08:00 21.5° 1014.8 hPa 0.7 m/s 75.2 mm 21.5° 1014.8 hPa 0.7 m/s 75.2 mm
14:00 30.2° 1014.7 hPa 1.5 m/s 0.3 mm
20:00 24.6° 1014.8 hPa 0.9 m/s 1.3 mm
 05:12     21:07    Daglengte: 15:55 Zondag 30 Jun
02:00 17.1° 1016.4 hPa 1.1 m/s 0.4 mm
08:00 21.0° 1016.2 hPa 0.5 m/s 0.3 mm
14:00 28.9° 1014.4 hPa 1.2 m/s 0.6 mm
20:00 23.7° 1014.6 hPa 0.8 m/s 1.4 mm
 05:13     21:07    Daglengte: 15:54 Maandag 01 Jul
02:00 17.2° 1015.9 hPa 1.1 m/s 1.9 mm
08:00 20.3° 1015.7 hPa 0.5 m/s 0.7 mm
14:00 27.8° 1014.0 hPa 1.2 m/s 0.6 mm
20:00 22.4° 1014.1 hPa 0.8 m/s 1.8 mm
 05:13     21:07    Daglengte: 15:54 Dinsdag 02 Jul
02:00 15.9° 1015.6 hPa 0.9 m/s 1.8 mm
08:00 19.0° 1015.9 hPa 0.6 m/s 0.9 mm
14:00 25.4° 1014.2 hPa 1.3 m/s 1.5 mm
20:00 21.6° 1014.2 hPa 0.7 m/s 2.4 mm
 05:14     21:06    Daglengte: 15:52 Woensdag 03 Jul
02:00 15.3° 1015.7 hPa 0.7 m/s 3.5 mm
08:00 18.6° 1015.6 hPa 0.4 m/s 1.7 mm
14:00 25.7° 1013.8 hPa 1.1 m/s 1.3 mm
20:00 21.3° 1014.0 hPa 0.5 m/s 3.3 mm
 05:15     21:06    Daglengte: 15:51 Donderdag 04 Jul
02:00 15.3° 1015.9 hPa 0.8 m/s 3.4 mm
08:00 18.1° 1016.6 hPa 0.4 m/s 1.5 mm
14:00 24.8° 1015.6 hPa 1.0 m/s 1.2 mm
FMI Hirlam - 7.5 km EWN WRFDA - 12 km DWD ICON - 7 km GFS - 25 km Basiskaart






























































Updatetijd (Europe/Amsterdam) Resolutie Lengte Stap
FMI Hirlam 19:00, 01:00, 07:00, 13:00 7.5 km 49h 1h
EWN WRFDA 16:00, 22:00, 04:00, 10:00 12 km 73h 1h
DWD ICON 17:45, 23:45, 05:45, 11:45 7 km 75h 1h
GFS 14:30, 20:30, 02:30, 08:30 25 km 237h 3h
30+ mm
25-30 mm
20-25 mm
15-20 mm
10-15 mm
6-10 mm
4-6 mm
2-4 mm
1-2 mm
0.5-1 mm
0.2-0.5 mm
0.1-0.2 mm
30+ mm
25-30 mm
20-25 mm
15-20 mm
10-15 mm
6-10 mm
4-6 mm
2-4 mm
1-2 mm
0.5-1 mm
0.2-0.5 mm
0.1-0.2 mm
Sneeuwval
Natte sneeuw
Hagel
Vorst
30+ mm
25-30 mm
20-25 mm
15-20 mm
10-15 mm
6-10 mm
4-6 mm
2-4 mm
1-2 mm
0.5-1 mm
0.2-0.5 mm
0.1-0.2 mm
Sneeuwval
Natte sneeuw
Hagel
Vorst
Onweer
50 mm
40 mm
30 mm
26 mm
22 mm
18 mm
14 mm
10 mm
9 mm
8 mm
7 mm
6 mm
5 mm
4.5 mm
4 mm
3.5 mm
3 mm
2.5 mm
2 mm
1.5 mm
1 mm
0.8 mm
0.6 mm
0.4 mm
0.2 mm
0.05 mm
35°
30°
25°
20°
15°
10°
-5°
-10°
-15°
-20°
-25°
-30°
-35°
33> m/s
29 m/s
25 m/s
21 m/s
17 m/s
14 m/s
11 m/s
8 m/s
5 m/s
3 m/s
0 m/s
2600 J/kg
2400 J/kg
2200 J/kg
2000 J/kg
1800 J/kg
1600 J/kg
1400 J/kg
1200 J/kg
1000 J/kg
800 J/kg
600 J/kg
400 J/kg
200 J/kg
70 dBZ
65 dBZ
60 dBZ
55 dBZ
50 dBZ
45 dBZ
40 dBZ
35 dBZ
30 dBZ
25 dBZ
20 dBZ
15 dBZ
10 dBZ
5 dBZ
-1 K
-2 K
-3 K
-4 K
-5 K
-6 K
-7 K
-8 K
-9 K
950 m²/s²
900 m²/s²
850 m²/s²
800 m²/s²
750 m²/s²
700 m²/s²
650 m²/s²
600 m²/s²
550 m²/s²
500 m²/s²
450 m²/s²
400 m²/s²
350 m²/s²
300 m²/s²
250 m²/s²
200 m²/s²
150 m²/s²
100 m²/s²
46 m/s
44 m/s
42 m/s
40 m/s
38 m/s
36 m/s
34 m/s
32 m/s
30 m/s
28 m/s
26 m/s
24 m/s
22 m/s
20 m/s
16 m/s
12 m/s
8 m/s
4 m/s
30 m/s
28 m/s
26 m/s
24 m/s
22 m/s
20 m/s
18 m/s
16 m/s
14 m/s
12 m/s
10 m/s
8 m/s